This demonstration page uses our WeatherBlox Daily Observations layout. Learn more.

Left ArrowRight Arrow

39.51506, -84.39828

Hourly Observations for April 11, 2021

Temp ( °F °C ) Dew Point ( °F °C ) Humidity (%) Winds ( mph kmh ) Pressure ( in mb ) Visibility ( mi km ) Precip ( " mm )
12:15 am 00:15 Hazy 54 12 N/A N/A Calm 29.5 999 5 8.0467 0 0
12:35 am 00:35 Mostly Cloudy with Fog 52 11 N/A N/A W 3 6 29.51 999 0.25 0.402335 0 0
12:55 am 00:55 Mostly Cloudy with Fog 50 10 N/A N/A Calm 29.5 999 0.25 0.402335 0 0
1:15 am 01:15 Mostly Cloudy with Mist and Fog 50 10 N/A N/A WSW 7 11 29.5 999 1.5 2.41401 0 0
1:35 am 01:35 Clear 52 11 N/A N/A SW 8 13 29.49 999 10 16.0934 0 0
1:55 am 01:55 Clear 52 11.1 52 10.9 99 99 SW 7 11 29.49 999 10 16.0934 0 0
2:15 am 02:15 Clear 51 10.6 50 10.2 97 97 SW 8 13 29.48 998 10 16.0934 0 0
2:35 am 02:35 Clear 51 10.7 50 9.8 94 94 WSW 8 13 29.47 998 10 16.0934 0 0
2:55 am 02:55 Clear 51 10.5 49 9.3 92 92 WSW 8 13 29.47 998 10 16.0934 0 0
3:15 am 03:15 Clear 50 9.8 48 8.9 94 94 WSW 7 11 29.47 998 10 16.0934 0 0
3:35 am 03:35 Clear 51 10.4 47 8.6 89 89 WSW 8 13 29.47 998 10 16.0934 0 0
3:55 am 03:55 Clear 49 9.4 47 8.6 95 95 WSW 6 9 29.47 998 10 16.0934 0 0
4:15 am 04:15 Clear 48 8.9 47 8.3 96 96 SW 6 9 29.47 998 10 16.0934 0 0
4:35 am 04:35 Partly Cloudy 48 9 48 8.8 99 99 SW 3 6 29.47 998 10 16.0934 0 0
4:55 am 04:55 Mostly Cloudy 47 8.6 47 8.2 97 97 SSW 6 9 29.47 998 10 16.0934 0 0
5:15 am 05:15 Cloudy 49 9.4 48 8.7 95 95 WSW 6 9 29.47 998 10 16.0934 0 0
5:35 am 05:35 Cloudy 51 10.3 47 8.1 86 86 SSW 8 13 29.47 998 10 16.0934 0 0
5:55 am 05:55 Cloudy 51 10.8 46 7.7 81 81 SSW 13 20 29.46 998 10 16.0934 0 0
6:15 am 06:15 Cloudy 52 11 46 7.5 79 79 SSW 12 19 29.46 998 10 16.0934 0 0
6:35 am 06:35 Cloudy 52 11.2 45 7.1 76 76 SSW 15 24 29.46 997 10 16.0934 0 0
6:55 am 06:55 Cloudy 52 11 45 7 77 77 SSW 15 24 29.46 998 10 16.0934 0 0
7:15 am 07:15 Cloudy 52 11 44 6.9 76 76 SSW 14 22 29.46 998 10 16.0934 0 0
7:35 am 07:35 Cloudy 52 11 44 6.8 76 76 SSW 15 24 29.46 998 10 16.0934 0 0
7:55 am 07:55 Cloudy 52 11.1 45 7 76 76 SSW 15 24 29.46 997 10 16.0934 0 0
8:15 am 08:15 Cloudy with Light Rain 51 10.6 46 7.7 82 82 SSW 16 26 29.46 998 10 16.0934 0.01 0.254
8:35 am 08:35 Cloudy with Light Rain 50 10.1 47 8.2 88 88 SSW 14 22 29.47 998 10 16.0934 0.02 0.508
8:55 am 08:55 Cloudy with Light Rain 51 10.3 47 8.4 88 88 SSW 15 24 29.47 998 10 16.0934 0.02 0.508
9:15 am 09:15 Cloudy with Light Rain 50 9.9 48 9 94 94 WSW 9 15 29.47 998 10 16.0934 0 0
9:35 am 09:35 Cloudy 51 10.5 48 8.9 90 90 SSW 14 22 29.46 998 10 16.0934 0 0
9:55 am 09:55 Cloudy with Light Rain 51 10.8 48 8.8 88 88 SSW 16 26 29.46 998 10 16.0934 0 0
10:15 am 10:15 Cloudy with Mist and Fog 51 10.8 48 8.7 87 87 SSW 23 37 29.46 998 5 8.0467 0 0
10:35 am 10:35 Cloudy 52 11.3 49 9.2 87 87 SW 17 28 29.46 997 10 16.0934 0 0
10:55 am 10:55 Cloudy with Light Rain 52 10.9 48 8.9 88 88 SSW 14 22 29.46 998 7 11.26538 0 0
11:15 am 11:15 Cloudy 52 11 48 8.9 87 87 SW 16 26 29.46 998 10 16.0934 0 0
11:35 am 11:35 Cloudy 52 11.2 48 9.1 87 87 WSW 14 22 29.46 997 10 16.0934 0 0
11:55 am 11:55 Cloudy with Light Rain 52 10.9 50 9.8 93 93 SW 13 20 29.46 998 10 16.0934 0 0
12:15 pm 12:15 Cloudy 52 11 50 9.8 92 92 SW 13 20 29.46 998 10 16.0934 0 0
12:35 pm 12:35 Cloudy 52 11.2 49 9.3 88 88 SW 13 20 29.47 998 10 16.0934 0 0
12:55 pm 12:55 Cloudy 52 11.2 50 10 92 92 SSW 12 19 29.47 998 10 16.0934 0 0
1:15 pm 13:15 Cloudy 54 12.1 48 9 82 82 SW 18 30 29.46 998 10 16.0934 0 0
1:35 pm 13:35 Cloudy 55 12.5 47 8.2 75 75 SW 16 26 29.45 997 10 16.0934 0 0
1:55 pm 13:55 Cloudy 55 12.5 47 8.1 75 75 SSW 20 31 29.45 997 10 16.0934 0 0
2:15 pm 14:15 Cloudy with Rain 52 10.9 48 9 88 88 W 15 24 29.48 998 5 8.0467 0 0
2:35 pm 14:35 Cloudy with Drizzle 51 10.6 50 9.8 95 95 SW 12 19 29.48 998 5 8.0467 0.01 0.254
2:55 pm 14:55 Cloudy 52 11.3 49 9.6 89 89 SSW 12 19 29.48 998 10 16.0934 0.01 0.254
3:15 pm 15:15 Cloudy 54 12.1 50 10.2 88 88 SW 9 15 29.47 998 10 16.0934 0 0
3:35 pm 15:35 Cloudy with Rain 52 11.1 50 9.8 92 92 WSW 15 24 29.48 998 7 11.26538 0.01 0.254
3:55 pm 15:55 Cloudy 53 11.5 50 10.2 92 92 SW 13 20 29.49 998 10 16.0934 0.01 0.254
4:15 pm 16:15 Cloudy 53 11.4 50 10.1 92 92 SW 12 19 29.49 998 10 16.0934 0 0
4:35 pm 16:35 Cloudy with Drizzle 52 11.1 48 9.1 88 88 W 15 24 29.49 999 7 11.26538 0 0
4:55 pm 16:55 Cloudy 53 11.4 48 8.8 84 84 SW 14 22 29.5 999 10 16.0934 0 0
5:15 pm 17:15 Cloudy 53 11.7 47 8.5 81 81 WSW 13 20 29.49 999 10 16.0934 0 0
5:35 pm 17:35 Cloudy 54 12.1 47 8.2 77 77 WSW 12 19 29.5 999 10 16.0934 0 0
5:55 pm 17:55 Cloudy 54 12.1 46 7.9 76 76 WSW 12 19 29.5 999 10 16.0934 0 0
6:15 pm 18:15 Cloudy 53 11.8 47 8.3 79 79 WSW 9 15 29.51 999 10 16.0934 0 0
6:35 pm 18:35 Cloudy 53 11.5 46 7.7 78 78 WSW 16 26 29.53 1000 10 16.0934 0 0
6:55 pm 18:55 Cloudy 53 11.6 46 7.8 78 78 W 16 26 29.52 1000 10 16.0934 0 0
7:15 pm 19:15 Cloudy 53 11.6 46 7.7 77 77 WSW 12 19 29.53 1000 10 16.0934 0 0
7:35 pm 19:35 Cloudy 52 11.2 46 7.8 80 80 WSW 16 26 29.54 1000 10 16.0934 0 0
7:55 pm 19:55 Cloudy with Mist and Fog 51 10.4 47 8.4 88 88 WSW 12 19 29.55 1001 7 11.26538 0 0
8:15 pm 20:15 Cloudy 51 10.6 46 7.9 84 84 W 12 19 29.56 1001 10 16.0934 0 0
8:35 pm 20:35 Cloudy 51 10.6 46 7.9 84 84 WSW 17 28 29.57 1001 10 16.0934 0 0
8:55 pm 20:55 Cloudy 51 10.6 46 7.8 83 83 WSW 10 17 29.58 1002 10 16.0934 0 0
9:15 pm 21:15 Cloudy 51 10.3 47 8.1 86 86 WSW 15 24 29.58 1002 10 16.0934 0 0
9:35 pm 21:35 Cloudy 50 10.2 47 8.1 87 87 WSW 12 19 29.6 1002 10 16.0934 0 0
9:55 pm 21:55 Cloudy 51 10.3 46 8 86 86 WSW 15 24 29.6 1002 10 16.0934 0 0
10:15 pm 22:15 Cloudy 50 10.1 46 7.9 86 86 WSW 15 24 29.6 1002 10 16.0934 0 0
10:35 pm 22:35 Cloudy 50 10.1 46 7.9 86 86 WSW 13 20 29.61 1003 10 16.0934 0 0
10:55 pm 22:55 Cloudy 50 10.2 46 7.9 86 86 WSW 14 22 29.61 1003 10 16.0934 0 0
11:15 pm 23:15 Cloudy 50 10.2 46 7.9 86 86 W 13 20 29.62 1003 10 16.0934 0 0
11:35 pm 23:35 Cloudy 50 10.1 47 8.1 88 88 W 13 20 29.62 1003 10 16.0934 0 0
11:55 pm 23:55 Cloudy with Light Rain 50 9.8 47 8.3 90 90 W 9 15 29.62 1003 10 16.0934 0 0

Powered by AerisWeather